Powrót do katalogu

SCOUT B DEB

LostUNKNOWN
NORAD 29175·DEBRIS·🇺🇸 United States

Wystrzelony Aug 10, 1965 z Wallops Flight Facility

Loading…

Następne Przeloty (najbliższe 24 godziny)

TLE

NieaktualneSource: Space-Track

Epoka: Dec 14, 2013, 05:59 UTC

1 29175U 65063Z   13348.24940053 -.00000020  00000-0  86497-4 0  9991
2 29175  69.1924 298.3547 0743692 348.3336  71.7544 11.93232746385525

Śledź SCOUT B DEB w czasie rzeczywistym z AllMySat

Download on the App Store